Bosporus — V2QY — position and weather

sailwx.info

Track history (hours):
 
Tides and Currents Weather Stations Pressure Air Temp Water Temp Dewpoint Dewpoint Depression Visibility Wind Speed Wind Dir Waves Ship Positions

Bosporus

Last reported at 2014-Sep-02 05:32 UTC. Time now 2014-Sep-02 21:26 UTC.
Position N 40°16' E 000°32'.

Length 100 m; draft 5.6 m.

Type: Cargo ship. MMSI: 304010802.

Date/timePositionNaut miles runAvg speedWind from/ knotsBaromVisibWave heightAir tempDewpointWater temp
2014-Sep-02 05:32N 40°16' E 000°32'59 9.9
2014-Sep-01 23:33N 40°55' E 001°30'2210.2
2014-Sep-01 21:24N 41°06' E 001°55'26 9.0
2014-Sep-01 18:28N 41°21' E 002°24'9 9.3
2014-Sep-01 17:31N 41°26' E 002°34'10 8.8
2014-Sep-01 16:24N 41°32' E 002°44'910.1
2014-Sep-01 15:30N 41°38' E 002°54'10 9.3
2014-Sep-01 14:28N 41°43' E 003°04'910.1
2014-Sep-01 13:32N 41°49' E 003°14'10 9.9
2014-Sep-01 12:33N 41°59' E 003°18'10 9.8
2014-Sep-01 11:33N 42°08' E 003°21'1010.0
2014-Sep-01 10:33N 42°18' E 003°23'1010.5
2014-Sep-01 09:33N 42°28' E 003°27'1110.8
2014-Sep-01 08:34N 42°38' E 003°31'1010.4
2014-Sep-01 07:33N 42°48' E 003°35'1010.2
2014-Sep-01 06:34N 42°58' E 003°40'10 9.3
2014-Sep-01 05:28N 43°04' E 003°51'1310.1
2014-Sep-01 04:13N 43°07' E 004°08'2810.2
2014-Sep-01 01:30N 43°15' E 004°45'910.0
2014-Sep-01 00:34N 43°20' E 004°55'6 5.6
2014-Aug-31 23:31N 43°26' E 004°53'0 0.0
2014-Aug-31 22:32N 43°26' E 004°53'0 0.0
2014-Aug-31 21:31N 43°26' E 004°53'0 0.0
2014-Aug-31 20:32N 43°26' E 004°53'0 0.0
2014-Aug-31 19:31N 43°26' E 004°53'0 0.0
2014-Aug-31 18:32N 43°26' E 004°53'0 0.0
2014-Aug-31 17:32N 43°26' E 004°53'0 0.0
2014-Aug-31 16:31N 43°26' E 004°53'0 0.0
2014-Aug-31 15:31N 43°26' E 004°53'0 0.0
2014-Aug-31 14:32N 43°26' E 004°53'0 0.0
2014-Aug-31 13:32N 43°26' E 004°53'0 0.0
2014-Aug-31 12:31N 43°26' E 004°53'0 0.0
2014-Aug-31 11:31N 43°26' E 004°53'0 0.0
2014-Aug-31 10:32N 43°26' E 004°53'0 0.0
2014-Aug-31 09:32N 43°26' E 004°53'0 0.0
2014-Aug-31 08:32N 43°26' E 004°53'0 0.0
2014-Aug-31 07:31N 43°26' E 004°53'0 0.0
2014-Aug-31 06:32N 43°26' E 004°53'0 0.0
2014-Aug-31 05:32N 43°26' E 004°53'0 0.0
2014-Aug-31 04:32N 43°26' E 004°53'0 0.0
2014-Aug-31 03:32N 43°26' E 004°53'0 0.0
2014-Aug-31 02:31N 43°26' E 004°53'0 0.0
2014-Aug-31 01:32N 43°26' E 004°53'0 0.0
2014-Aug-31 00:32N 43°26' E 004°53'0 0.0
2014-Aug-30 23:31N 43°26' E 004°53'0 0.0
2014-Aug-30 22:31N 43°26' E 004°53'0 0.0
2014-Aug-30 21:32N 43°26' E 004°53'0 0.0
2014-Aug-30 20:31N 43°26' E 004°53'0 0.0
2014-Aug-30 19:32N 43°26' E 004°53'0 0.0
2014-Aug-30 18:31N 43°26' E 004°53'0 0.0
2014-Aug-30 17:31N 43°26' E 004°53'0 0.0
2014-Aug-30 16:31N 43°26' E 004°53'0 0.0
2014-Aug-30 15:32N 43°26' E 004°53'0 0.0
2014-Aug-30 14:31N 43°26' E 004°53'0 0.0
2014-Aug-30 13:31N 43°26' E 004°53'2 2.3
2014-Aug-30 12:33N 43°25' E 004°56'0 0.1
2014-Aug-30 11:33N 43°25' E 004°56'0 0.0
2014-Aug-30 10:33N 43°25' E 004°56'0 0.0
2014-Aug-30 09:33N 43°25' E 004°56'0 0.0
2014-Aug-30 08:33N 43°25' E 004°56'0 0.0
2014-Aug-30 07:33N 43°25' E 004°56'0 0.0
2014-Aug-30 06:33N 43°25' E 004°56'0 0.0
2014-Aug-30 05:33N 43°25' E 004°56'0 0.0
2014-Aug-30 04:33N 43°25' E 004°56'0 0.0
2014-Aug-30 03:33N 43°25' E 004°56'0 0.0
2014-Aug-30 02:33N 43°25' E 004°56'0 0.0
2014-Aug-30 01:33N 43°25' E 004°56'0 0.0
2014-Aug-30 00:33N 43°25' E 004°56'0 0.1
2014-Aug-29 23:33N 43°25' E 004°56'0 0.0
2014-Aug-29 22:33N 43°25' E 004°56'0 0.0
2014-Aug-29 21:33N 43°25' E 004°56'0 0.0
2014-Aug-29 20:33N 43°25' E 004°56'0 0.0
2014-Aug-29 19:33N 43°25' E 004°56'0 0.0
2014-Aug-29 18:33N 43°25' E 004°56'0 0.0
2014-Aug-29 17:33N 43°25' E 004°56'0 0.0
2014-Aug-29 16:33N 43°25' E 004°56'0 0.0
2014-Aug-29 15:33N 43°25' E 004°56'0 0.0
2014-Aug-29 14:33N 43°25' E 004°56'0 0.0
2014-Aug-29 13:33N 43°25' E 004°56'0 0.0
2014-Aug-29 12:33N 43°25' E 004°56'0 0.1
2014-Aug-29 11:33N 43°25' E 004°56'0 0.0
2014-Aug-29 10:33N 43°25' E 004°56'0 0.1
2014-Aug-29 09:33N 43°25' E 004°56'0 0.1
2014-Aug-29 08:33N 43°25' E 004°56'0 0.0
2014-Aug-29 07:33N 43°25' E 004°56'0 0.1
2014-Aug-29 06:33N 43°25' E 004°56'0 0.0
2014-Aug-29 05:33N 43°25' E 004°56'0 0.1
2014-Aug-29 04:33N 43°25' E 004°56'0 0.0
2014-Aug-29 03:33N 43°25' E 004°56'0 0.0
2014-Aug-29 02:33N 43°25' E 004°56'0 0.0
2014-Aug-29 01:33N 43°25' E 004°56'0 0.0
2014-Aug-29 00:33N 43°25' E 004°56'0 0.0
2014-Aug-28 23:33N 43°25' E 004°56'0 0.0
2014-Aug-28 22:33N 43°25' E 004°56'0 0.1
2014-Aug-28 21:33N 43°25' E 004°56'0 0.0
2014-Aug-28 20:33N 43°25' E 004°56'0 0.0
2014-Aug-28 19:33N 43°25' E 004°56'0 0.0
2014-Aug-28 18:33N 43°25' E 004°56'7 7.1
2014-Aug-28 17:33N 43°18' E 004°60'10 9.5
2014-Aug-28 16:33N 43°09' E 004°59'1110.6
2014-Aug-28 15:33N 43°01' E 004°49'1211.4
2014-Aug-28 14:30N 42°53' E 004°37'1211.3
2014-Aug-28 13:25N 42°44' E 004°26'2826.4
2014-Aug-28 12:21N 42°24' E 003°59'3 1.9
2014-Aug-28 10:29N 42°21' E 003°56'1110.4
2014-Aug-28 09:26N 42°13' E 003°46'1210.5
2014-Aug-28 08:19N 42°05' E 003°35'911.5
2014-Aug-28 07:33N 41°59' E 003°26'1211.2
2014-Aug-28 06:27N 41°49' E 003°15'11 9.3
2014-Aug-28 05:18N 41°43' E 003°04'911.5
2014-Aug-28 04:32N 41°38' E 002°54'1111.0
2014-Aug-28 03:33N 41°31' E 002°43'2712.1
2014-Aug-28 01:21N 41°15' E 002°15'1111.2
2014-Aug-28 00:21N 41°09' E 002°02'1111.1
2014-Aug-27 23:19N 41°04' E 001°49'1211.0
2014-Aug-27 22:16N 40°58' E 001°36'114 6.7
2014-Aug-27 05:16N 39°39' W 000°13'55 8.9
2014-Aug-26 23:08N 40°19' E 000°36'6 9.8
2014-Aug-26 22:32N 40°24' E 000°40'10 9.9
2014-Aug-26 21:33N 40°31' E 000°49'10 9.9
2014-Aug-26 20:33N 40°39' E 000°57'10 9.7
2014-Aug-26 19:33N 40°45' E 001°07'10 9.7
2014-Aug-26 18:30N 40°50' E 001°19'9 9.6
2014-Aug-26 17:33N 40°55' E 001°29'10 9.8
2014-Aug-26 16:33N 40°60' E 001°40'10 9.7
2014-Aug-26 15:33N 41°05' E 001°51'11 9.5
2014-Aug-26 14:24N 41°10' E 002°04'8 9.2
2014-Aug-26 13:32N 41°14' E 002°13'9 8.8
2014-Aug-26 12:33N 41°19' E 002°22'9 8.5
2014-Aug-26 11:33N 41°25' E 002°31'8 8.4
2014-Aug-26 10:33N 41°29' E 002°40'12 9.2
2014-Aug-26 09:16N 41°37' E 002°52'1010.4
2014-Aug-26 08:16N 41°43' E 003°04'7 9.0
2014-Aug-26 07:26N 41°47' E 003°12'8 8.9
2014-Aug-26 06:31N 41°54' E 003°19'12 9.9
2014-Aug-26 05:20N 42°02' E 003°29'9 8.9
2014-Aug-26 04:18N 42°10' E 003°37'18 9.7
2014-Aug-26 02:28N 42°23' E 003°53'29 9.8
2014-Aug-25 23:29N 42°46' E 004°18'10 9.8
2014-Aug-25 22:25N 42°54' E 004°27'910.0
2014-Aug-25 21:33N 43°00' E 004°34'10 9.7
2014-Aug-25 20:33N 43°08' E 004°43'10 9.8
2014-Aug-25 19:33N 43°15' E 004°51'9 8.6
2014-Aug-25 18:34N 43°24' E 004°55'2 2.3
2014-Aug-25 17:34N 43°26' E 004°53'0 0.0
2014-Aug-25 16:31N 43°26' E 004°53'0 0.0
2014-Aug-25 15:34N 43°26' E 004°53'0 0.0
2014-Aug-25 14:31N 43°26' E 004°53'0 0.0
2014-Aug-25 13:31N 43°26' E 004°53'0 0.0
2014-Aug-25 12:34N 43°26' E 004°53'0 0.0
2014-Aug-25 11:34N 43°26' E 004°53'0 0.0
2014-Aug-25 10:33N 43°26' E 004°53'0 0.0
2014-Aug-25 09:34N 43°26' E 004°53'0 0.0
2014-Aug-25 08:34N 43°26' E 004°53'0 0.0
2014-Aug-25 07:34N 43°26' E 004°53'0 0.0
2014-Aug-25 06:33N 43°26' E 004°53'0 0.0
2014-Aug-25 05:34N 43°26' E 004°53'0 0.0
2014-Aug-25 04:33N 43°26' E 004°53'0 0.0
2014-Aug-25 03:34N 43°26' E 004°53'0 0.0
2014-Aug-25 02:34N 43°26' E 004°53'0 0.0
2014-Aug-25 01:34N 43°26' E 004°53'0 0.0
2014-Aug-25 00:34N 43°26' E 004°53'0 0.0
2014-Aug-24 23:34N 43°26' E 004°53'0 0.0
2014-Aug-24 22:33N 43°26' E 004°53'0 0.0
2014-Aug-24 21:30N 43°26' E 004°53'0 0.0
2014-Aug-24 20:34N 43°26' E 004°53'0 0.0
2014-Aug-24 19:34N 43°26' E 004°53'1 1.1
2014-Aug-24 18:33N 43°24' E 004°53'1 1.4
2014-Aug-24 17:32N 43°25' E 004°55'0 0.0
2014-Aug-24 16:32N 43°25' E 004°55'0 0.0
2014-Aug-24 15:32N 43°25' E 004°55'0 0.1
2014-Aug-24 14:32N 43°25' E 004°55'0 0.0
2014-Aug-24 13:32N 43°25' E 004°55'0 0.0
2014-Aug-24 12:32N 43°25' E 004°55'0 0.0
2014-Aug-24 11:32N 43°25' E 004°55'0 0.0
2014-Aug-24 10:32N 43°25' E 004°55'0 0.0
2014-Aug-24 09:32N 43°25' E 004°55'0 0.0
2014-Aug-24 08:32N 43°25' E 004°55'0 0.0
2014-Aug-24 07:32N 43°25' E 004°55'0 0.0
2014-Aug-24 06:32N 43°25' E 004°55'0 0.0
2014-Aug-24 05:32N 43°25' E 004°55'0 0.0
2014-Aug-24 04:32N 43°25' E 004°55'0 0.0
2014-Aug-24 03:32N 43°25' E 004°55'0 0.0
2014-Aug-24 02:32N 43°25' E 004°55'0 0.0
2014-Aug-24 01:32N 43°25' E 004°55'1 1.3
2014-Aug-24 00:34N 43°24' E 004°56'10 9.9
2014-Aug-23 23:34N 43°15' E 005°02'10 9.5
2014-Aug-23 22:33N 43°06' E 004°56'1010.1
2014-Aug-23 21:31N 42°59' E 004°46'2010.0
2014-Aug-23 19:29N 42°44' E 004°26'  
Track history (hours):
 
Tides and Currents Weather Stations Pressure Air Temp Water Temp Dewpoint Dewpoint Depression Visibility Wind Speed Wind Dir Waves Ship Positions

Bosporus

Last reported at 2014-Sep-02 05:32 UTC. Time now 2014-Sep-02 21:26 UTC.
Position N 40°16' E 000°32'.

Length 100 m; draft 5.6 m.

Type: Cargo ship. MMSI: 304010802.

Date/timePositionNaut miles runAvg speedWind from/ knotsBaromVisibWave heightAir tempDewpointWater temp
2014-Sep-02 05:32N 40°16' E 000°32'59 9.9
2014-Sep-01 23:33N 40°55' E 001°30'2210.2
2014-Sep-01 21:24N 41°06' E 001°55'26 9.0
2014-Sep-01 18:28N 41°21' E 002°24'9 9.3
2014-Sep-01 17:31N 41°26' E 002°34'10 8.8
2014-Sep-01 16:24N 41°32' E 002°44'910.1
2014-Sep-01 15:30N 41°38' E 002°54'10 9.3
2014-Sep-01 14:28N 41°43' E 003°04'910.1
2014-Sep-01 13:32N 41°49' E 003°14'10 9.9
2014-Sep-01 12:33N 41°59' E 003°18'10 9.8
2014-Sep-01 11:33N 42°08' E 003°21'1010.0
2014-Sep-01 10:33N 42°18' E 003°23'1010.5
2014-Sep-01 09:33N 42°28' E 003°27'1110.8
2014-Sep-01 08:34N 42°38' E 003°31'1010.4
2014-Sep-01 07:33N 42°48' E 003°35'1010.2
2014-Sep-01 06:34N 42°58' E 003°40'10 9.3
2014-Sep-01 05:28N 43°04' E 003°51'1310.1
2014-Sep-01 04:13N 43°07' E 004°08'2810.2
2014-Sep-01 01:30N 43°15' E 004°45'910.0
2014-Sep-01 00:34N 43°20' E 004°55'6 5.6
2014-Aug-31 23:31N 43°26' E 004°53'0 0.0
2014-Aug-31 22:32N 43°26' E 004°53'0 0.0
2014-Aug-31 21:31N 43°26' E 004°53'0 0.0
2014-Aug-31 20:32N 43°26' E 004°53'0 0.0
2014-Aug-31 19:31N 43°26' E 004°53'0 0.0
2014-Aug-31 18:32N 43°26' E 004°53'0 0.0
2014-Aug-31 17:32N 43°26' E 004°53'0 0.0
2014-Aug-31 16:31N 43°26' E 004°53'0 0.0
2014-Aug-31 15:31N 43°26' E 004°53'0 0.0
2014-Aug-31 14:32N 43°26' E 004°53'0 0.0
2014-Aug-31 13:32N 43°26' E 004°53'0 0.0
2014-Aug-31 12:31N 43°26' E 004°53'0 0.0
2014-Aug-31 11:31N 43°26' E 004°53'0 0.0
2014-Aug-31 10:32N 43°26' E 004°53'0 0.0
2014-Aug-31 09:32N 43°26' E 004°53'0 0.0
2014-Aug-31 08:32N 43°26' E 004°53'0 0.0
2014-Aug-31 07:31N 43°26' E 004°53'0 0.0
2014-Aug-31 06:32N 43°26' E 004°53'0 0.0
2014-Aug-31 05:32N 43°26' E 004°53'0 0.0
2014-Aug-31 04:32N 43°26' E 004°53'0 0.0
2014-Aug-31 03:32N 43°26' E 004°53'0 0.0
2014-Aug-31 02:31N 43°26' E 004°53'0 0.0
2014-Aug-31 01:32N 43°26' E 004°53'0 0.0
2014-Aug-31 00:32N 43°26' E 004°53'0 0.0
2014-Aug-30 23:31N 43°26' E 004°53'0 0.0
2014-Aug-30 22:31N 43°26' E 004°53'0 0.0
2014-Aug-30 21:32N 43°26' E 004°53'0 0.0
2014-Aug-30 20:31N 43°26' E 004°53'0 0.0
2014-Aug-30 19:32N 43°26' E 004°53'0 0.0
2014-Aug-30 18:31N 43°26' E 004°53'0 0.0
2014-Aug-30 17:31N 43°26' E 004°53'0 0.0
2014-Aug-30 16:31N 43°26' E 004°53'0 0.0
2014-Aug-30 15:32N 43°26' E 004°53'0 0.0
2014-Aug-30 14:31N 43°26' E 004°53'0 0.0
2014-Aug-30 13:31N 43°26' E 004°53'2 2.3
2014-Aug-30 12:33N 43°25' E 004°56'0 0.1
2014-Aug-30 11:33N 43°25' E 004°56'0 0.0
2014-Aug-30 10:33N 43°25' E 004°56'0 0.0
2014-Aug-30 09:33N 43°25' E 004°56'0 0.0
2014-Aug-30 08:33N 43°25' E 004°56'0 0.0
2014-Aug-30 07:33N 43°25' E 004°56'0 0.0
2014-Aug-30 06:33N 43°25' E 004°56'0 0.0
2014-Aug-30 05:33N 43°25' E 004°56'0 0.0
2014-Aug-30 04:33N 43°25' E 004°56'0 0.0
2014-Aug-30 03:33N 43°25' E 004°56'0 0.0
2014-Aug-30 02:33N 43°25' E 004°56'0 0.0
2014-Aug-30 01:33N 43°25' E 004°56'0 0.0
2014-Aug-30 00:33N 43°25' E 004°56'0 0.1
2014-Aug-29 23:33N 43°25' E 004°56'0 0.0
2014-Aug-29 22:33N 43°25' E 004°56'0 0.0
2014-Aug-29 21:33N 43°25' E 004°56'0 0.0
2014-Aug-29 20:33N 43°25' E 004°56'0 0.0
2014-Aug-29 19:33N 43°25' E 004°56'0 0.0
2014-Aug-29 18:33N 43°25' E 004°56'0 0.0
2014-Aug-29 17:33N 43°25' E 004°56'0 0.0
2014-Aug-29 16:33N 43°25' E 004°56'0 0.0
2014-Aug-29 15:33N 43°25' E 004°56'0 0.0
2014-Aug-29 14:33N 43°25' E 004°56'0 0.0
2014-Aug-29 13:33N 43°25' E 004°56'0 0.0
2014-Aug-29 12:33N 43°25' E 004°56'0 0.1
2014-Aug-29 11:33N 43°25' E 004°56'0 0.0
2014-Aug-29 10:33N 43°25' E 004°56'0 0.1
2014-Aug-29 09:33N 43°25' E 004°56'0 0.1
2014-Aug-29 08:33N 43°25' E 004°56'0 0.0
2014-Aug-29 07:33N 43°25' E 004°56'0 0.1
2014-Aug-29 06:33N 43°25' E 004°56'0 0.0
2014-Aug-29 05:33N 43°25' E 004°56'0 0.1
2014-Aug-29 04:33N 43°25' E 004°56'0 0.0
2014-Aug-29 03:33N 43°25' E 004°56'0 0.0
2014-Aug-29 02:33N 43°25' E 004°56'0 0.0
2014-Aug-29 01:33N 43°25' E 004°56'0 0.0
2014-Aug-29 00:33N 43°25' E 004°56'0 0.0
2014-Aug-28 23:33N 43°25' E 004°56'0 0.0
2014-Aug-28 22:33N 43°25' E 004°56'0 0.1
2014-Aug-28 21:33N 43°25' E 004°56'0 0.0
2014-Aug-28 20:33N 43°25' E 004°56'0 0.0
2014-Aug-28 19:33N 43°25' E 004°56'0 0.0
2014-Aug-28 18:33N 43°25' E 004°56'7 7.1
2014-Aug-28 17:33N 43°18' E 004°60'10 9.5
2014-Aug-28 16:33N 43°09' E 004°59'1110.6
2014-Aug-28 15:33N 43°01' E 004°49'1211.4
2014-Aug-28 14:30N 42°53' E 004°37'1211.3
2014-Aug-28 13:25N 42°44' E 004°26'2826.4
2014-Aug-28 12:21N 42°24' E 003°59'3 1.9
2014-Aug-28 10:29N 42°21' E 003°56'1110.4
2014-Aug-28 09:26N 42°13' E 003°46'1210.5
2014-Aug-28 08:19N 42°05' E 003°35'911.5
2014-Aug-28 07:33N 41°59' E 003°26'1211.2
2014-Aug-28 06:27N 41°49' E 003°15'11 9.3
2014-Aug-28 05:18N 41°43' E 003°04'911.5
2014-Aug-28 04:32N 41°38' E 002°54'1111.0
2014-Aug-28 03:33N 41°31' E 002°43'2712.1
2014-Aug-28 01:21N 41°15' E 002°15'1111.2
2014-Aug-28 00:21N 41°09' E 002°02'1111.1
2014-Aug-27 23:19N 41°04' E 001°49'1211.0
2014-Aug-27 22:16N 40°58' E 001°36'114 6.7
2014-Aug-27 05:16N 39°39' W 000°13'55 8.9
2014-Aug-26 23:08N 40°19' E 000°36'6 9.8
2014-Aug-26 22:32N 40°24' E 000°40'10 9.9
2014-Aug-26 21:33N 40°31' E 000°49'10 9.9
2014-Aug-26 20:33N 40°39' E 000°57'10 9.7
2014-Aug-26 19:33N 40°45' E 001°07'10 9.7
2014-Aug-26 18:30N 40°50' E 001°19'9 9.6
2014-Aug-26 17:33N 40°55' E 001°29'10 9.8
2014-Aug-26 16:33N 40°60' E 001°40'10 9.7
2014-Aug-26 15:33N 41°05' E 001°51'11 9.5
2014-Aug-26 14:24N 41°10' E 002°04'8 9.2
2014-Aug-26 13:32N 41°14' E 002°13'9 8.8
2014-Aug-26 12:33N 41°19' E 002°22'9 8.5
2014-Aug-26 11:33N 41°25' E 002°31'8 8.4
2014-Aug-26 10:33N 41°29' E 002°40'12 9.2
2014-Aug-26 09:16N 41°37' E 002°52'1010.4
2014-Aug-26 08:16N 41°43' E 003°04'7 9.0
2014-Aug-26 07:26N 41°47' E 003°12'8 8.9
2014-Aug-26 06:31N 41°54' E 003°19'12 9.9
2014-Aug-26 05:20N 42°02' E 003°29'9 8.9
2014-Aug-26 04:18N 42°10' E 003°37'18 9.7
2014-Aug-26 02:28N 42°23' E 003°53'29 9.8
2014-Aug-25 23:29N 42°46' E 004°18'10 9.8
2014-Aug-25 22:25N 42°54' E 004°27'910.0
2014-Aug-25 21:33N 43°00' E 004°34'10 9.7
2014-Aug-25 20:33N 43°08' E 004°43'10 9.8
2014-Aug-25 19:33N 43°15' E 004°51'9 8.6
2014-Aug-25 18:34N 43°24' E 004°55'2 2.3
2014-Aug-25 17:34N 43°26' E 004°53'0 0.0
2014-Aug-25 16:31N 43°26' E 004°53'0 0.0
2014-Aug-25 15:34N 43°26' E 004°53'0 0.0
2014-Aug-25 14:31N 43°26' E 004°53'0 0.0
2014-Aug-25 13:31N 43°26' E 004°53'0 0.0
2014-Aug-25 12:34N 43°26' E 004°53'0 0.0
2014-Aug-25 11:34N 43°26' E 004°53'0 0.0
2014-Aug-25 10:33N 43°26' E 004°53'0 0.0
2014-Aug-25 09:34N 43°26' E 004°53'0 0.0
2014-Aug-25 08:34N 43°26' E 004°53'0 0.0
2014-Aug-25 07:34N 43°26' E 004°53'0 0.0
2014-Aug-25 06:33N 43°26' E 004°53'0 0.0
2014-Aug-25 05:34N 43°26' E 004°53'0 0.0
2014-Aug-25 04:33N 43°26' E 004°53'0 0.0
2014-Aug-25 03:34N 43°26' E 004°53'0 0.0
2014-Aug-25 02:34N 43°26' E 004°53'0 0.0
2014-Aug-25 01:34N 43°26' E 004°53'0 0.0
2014-Aug-25 00:34N 43°26' E 004°53'0 0.0
2014-Aug-24 23:34N 43°26' E 004°53'0 0.0
2014-Aug-24 22:33N 43°26' E 004°53'0 0.0
2014-Aug-24 21:30N 43°26' E 004°53'0 0.0
2014-Aug-24 20:34N 43°26' E 004°53'0 0.0
2014-Aug-24 19:34N 43°26' E 004°53'1 1.1
2014-Aug-24 18:33N 43°24' E 004°53'1 1.4
2014-Aug-24 17:32N 43°25' E 004°55'0 0.0
2014-Aug-24 16:32N 43°25' E 004°55'0 0.0
2014-Aug-24 15:32N 43°25' E 004°55'0 0.1
2014-Aug-24 14:32N 43°25' E 004°55'0 0.0
2014-Aug-24 13:32N 43°25' E 004°55'0 0.0
2014-Aug-24 12:32N 43°25' E 004°55'0 0.0
2014-Aug-24 11:32N 43°25' E 004°55'0 0.0
2014-Aug-24 10:32N 43°25' E 004°55'0 0.0
2014-Aug-24 09:32N 43°25' E 004°55'0 0.0
2014-Aug-24 08:32N 43°25' E 004°55'0 0.0
2014-Aug-24 07:32N 43°25' E 004°55'0 0.0
2014-Aug-24 06:32N 43°25' E 004°55'0 0.0
2014-Aug-24 05:32N 43°25' E 004°55'0 0.0
2014-Aug-24 04:32N 43°25' E 004°55'0 0.0
2014-Aug-24 03:32N 43°25' E 004°55'0 0.0
2014-Aug-24 02:32N 43°25' E 004°55'0 0.0
2014-Aug-24 01:32N 43°25' E 004°55'1 1.3
2014-Aug-24 00:34N 43°24' E 004°56'10 9.9
2014-Aug-23 23:34N 43°15' E 005°02'10 9.5
2014-Aug-23 22:33N 43°06' E 004°56'1010.1
2014-Aug-23 21:31N 42°59' E 004°46'2010.0
2014-Aug-23 19:29N 42°44' E 004°26'  

Dump ship's entire track history